Вернуться в каталог

STARLINK-37418

АктивенСвязьSSO
NORAD 68775·PAYLOAD·🇺🇸 United States

Запущен Apr 19, 2026 с Vandenberg Space Force Base

Loading…

Ближайшие Пролёты (ближайшие 24 часа)

TLE

СвежийSource: CelesTrak SupGP

Эпоха: Sep 15, 2026, 03:11 UTC

1 68775C 26086K   26258.13312500 -.00020920  00000+0 -64941-3 0  2582
2 68775  97.2841 293.6259 0001344  90.5838 198.8143 15.33450435    15

Отслеживайте STARLINK-37418 в реальном времени с AllMySat

Download on the App Store